Location: Albert Place
(40.7505°N, 111.9230°W)
Time: 14:55:03
(UTC+00:00)

BREEZE-M DEB (TANK) - Pass Details

Date: 13 December 2025
Orbit: 355 x 13412 km, 46.0° (Epoch: 17 January)

Event Time Altitude Azimuth Distance (km) Brightness Sun altitude
Exits shadow 13:38:27 18° 299° (WNW) 1,300 3.6 -12.0°
Maximum altitude 13:40:51 76° 23° (NNE) 737 2.9 -11.5°
Drops below altitude 10° 13:49:22 10° 111° (ESE) 4,273 8.5 -10.0°
Sets 13:55:43 0° 113° (ESE) 6,907 10.4 -8.9°
